Regional Weather Roundup
Issued by NWS Glasgow, MT

Home | Current Version | Previous Version | Text Only | Print | Product List | Glossary On
Versions: 1 2 3 4 5 6 7 8 9 10 11 12 13 14 15 16 17 18 19 20 21 22 23 24 25 26 27 28
000
ASUS45 KGGW 230115
RWRGGW
HOURLY REGIONAL WEATHER ROUNDUP FOR NORTHEAST MONTANA
NATIONAL WEATHER SERVICE GLASGOW MONTANA
600 PM MST SUN JAN 22 2017

NOTE: "FAIR" INDICATES FEW OR NO CLOUDS BELOW 12,000 FEET WITH NO
SIGNIFICANT WEATHER AND/OR OBSTRUCTIONS TO VISISBILITY.

NORTHEAST MONTANA


CITY           SKY/WX    TMP DP  RH WIND       PRES   REMARKS
GLASGOW        CLOUDY    30  25  81 SW6       29.81S
PLENTYWOOD       N/A     27  25  92 W10G18      N/A
WOLF POINT     CLOUDY    31  25  78 SW7       29.84S
JORDAN           N/A     29  25  85 CALM      29.81S
WINNETT          N/A     18  17  96 W3          N/A
SIDNEY         CLOUDY    30  23  75 NW7       29.85R
GLENDIVE       CLOUDY    27  23  85 NW8       29.85S
MALTA            N/A     32  28  85 W3          N/A

FORT PECK REPORTS


CITY           SKY/WX    TMP DP  RH WIND       PRES   REMARKS
FORT PECK        N/A     30  28  92 SW8         N/A
THE PINES        N/A     31  25  78 CALM        N/A

SOUTHEAST MONTANA


CITY           SKY/WX    TMP DP  RH WIND       PRES   REMARKS
BILLINGS       MOCLDY    33  22  63 CALM      29.75R
MILES CITY     CLOUDY    24  20  84 SE6       29.84S
BAKER          CLOUDY    24  21  88 W8        29.84S
LIVINGSTON     CLOUDY    35  19  52 VRB3      29.66F

CENTRAL MONTANA


CITY           SKY/WX    TMP DP  RH WIND       PRES   REMARKS
HAVRE          CLOUDY    28  26  92 N3        29.79F
LEWISTOWN      CLEAR     28  22  78 E6        29.70S
GREAT FALLS    FOG       24  22  91 NE15      29.70F VSB 1/4
CUT BANK       FOG       23  22  96 SE8       29.74R VSB 1
HELENA         CLOUDY    23  15  71 CALM      29.68S
BUTTE          CLOUDY    28  20  71 S6        29.63F
BOZEMAN        CLOUDY    26  19  74 VRB6      29.67F

WESTERN MONTANA


CITY           SKY/WX    TMP DP  RH WIND       PRES   REMARKS
MISSOULA       CLOUDY    31  29  92 SE3       29.64F
KALISPELL      NOT AVBL

NORTH DAKOTA


CITY           SKY/WX    TMP DP  RH WIND       PRES   REMARKS
WILLISTON      CLOUDY    30  24  78 W9        29.83R
DICKINSON      CLOUDY    26  23  88 NW17      29.80R
MINOT          CLOUDY    31  28  89 W13       29.78S
BISMARCK       CLOUDY    33  27  78 NW8       29.84S

SOUTHERN SASKATCHEWAN


CITY           SKY/WX    TMP DP  RH WIND       PRES   REMARKS
REGINA         FLURRIES  23  21  93 NW13      29.78S
ESTEVAN        FLURRIES  27  25  93 W12       29.77S
SWIFT CURRENT  CLOUDY    19  19 100 NW9       29.77S





USA.gov is the U.S. government's official web portal to all federal, state and local government web resources and services.